[ ตารางข้อมูล ] [ Min-Max ] [ วันนี้4 ] [ วันนี้2 ] [ เทียบ3วัน A ] [ เทียบ4วัน B ]   

วันนี้2   [ ◀ ช่วงเก่ากว่า ] [ ช่วงที่ 231 ] [ ช่วงใหม่กว่า ▶ ] [ ล่าสุด ]    [ 3 ชั่วโมง ] [ 6 ชั่วโมง ] [ 12 ชั่วโมง ] [ 24 ชั่วโมง ]   วันนี้2

อุณภูมิตู้ Knockdown4529  ราย 3 ชั่วโมง  ที่วัดได้ ในช่วงวันเวลา 07/04/2026 (12:58) ถึง 07/04/2026 (15:58) 
ความชื้นในตู้ Knockdown4529  ราย 3 ชั่วโมง  ที่วัดได้ ในช่วงวันเวลา 07/04/2026 (12:58) ถึง 07/04/2026 (15:58) 

 
DS18B20SHTC3 
IDDate d/m/Y & Timedata1
สูง
data2
ต่ำ
data3
นอก
temp
pcb
hum
pcb
Time
 9679  07/04/2026 15:54:19  33.7  33.1  34.2  33.4  66.7  15:54 
 9678  07/04/2026 15:49:37  33.7  33.1  34.3  33.2  66.7  15:49 
 9677  07/04/2026 15:44:55  33.8  33.1  34.2  33.2  66.4  15:44 
 9676  07/04/2026 15:40:13  33.8  33.1  34.2  33.5  66.5  15:40 
 9675  07/04/2026 15:35:31  33.9  33.0  34.4  33.3  66.5  15:35 
 9674  07/04/2026 15:30:49  33.9  33.0  34.4  33.4  66.4  15:30 
 9673  07/04/2026 15:26:07  34.0  33.0  34.3  33.3  66.2  15:26 
 9672  07/04/2026 15:21:25  34.1  33.0  34.3  33.6  66.2  15:21 
 9671  07/04/2026 15:16:43  34.1  33.0  34.1  33.5  66.1  15:16 
 9670  07/04/2026 15:12:01  34.1  33.0  34.1  33.6  66.0  15:12 
 9669  07/04/2026 15:07:18  34.2  33.0  34.2  33.4  65.9  15:07 
 9668  07/04/2026 15:02:37  34.2  33.0  34.2  33.3  65.9  15:02 
 9667  07/04/2026 14:57:55  34.2  32.9  34.5  33.5  66.0  14:57 
 9666  07/04/2026 14:53:12  34.2  32.9  34.6  33.6  65.9  14:53 
 9665  07/04/2026 14:48:29  34.2  32.9  34.6  33.6  65.9  14:48 
 9664  07/04/2026 14:43:47  34.2  32.9  34.4  33.4  65.6  14:43 
 9663  07/04/2026 14:39:05  34.2  32.9  34.5  33.6  65.7  14:39 
 9662  07/04/2026 14:34:22  34.2  32.9  34.1  33.5  65.6  14:34 
 9661  07/04/2026 14:29:41  34.3  32.9  34.3  33.6  65.4  14:29 
 9660  07/04/2026 14:24:59  34.3  32.9  33.9  33.6  65.3  14:24 
 9659  07/04/2026 14:20:16  34.3  32.9  34.0  33.6  65.4  14:20 
 9658  07/04/2026 14:15:35  34.4  32.8  34.4  33.5  65.2  14:15 
 9657  07/04/2026 14:10:53  34.3  32.8  34.0  33.4  65.3  14:10 
 9656  07/04/2026 14:06:11  34.3  32.8  34.6  33.3  65.4  14:06 

Data every 5 minute.


ใช้เวลาประมวลผล 0.00182 วินาที